Regional Weather Roundup
Issued by NWS

Home | Current Version | Previous Version | Text Only | Print | Product List | Glossary On
Versions: 1 2 3 4 5 6 7 8 9 10 11 12 13 14 15 16 17 18 19 20 21 22 23 24 25 26
000
ASUS42 KTBW 300616
RWRFL
FLORIDA REGIONAL WEATHER ROUNDUP
NATIONAL WEATHER SERVICE TAMPA BAY RUSKIN FL
200 AM EDT FRI SEP 30 2016

NOTE: "FAIR" INDICATES FEW OR NO CLOUDS BELOW 12,000 FEET WITH NO
SIGNIFICANT WEATHER AND/OR OBSTRUCTIONS TO VISIBILITY.

FLZ001>010-012>015-112-114-115-300700-
PANHANDLE FLORIDA

CITY           SKY/WX    TMP DP  RH WIND       PRES   REMARKS
PENSACOLA      CLEAR     66  50  56 N6        30.05F
PENSACOLA NAS  CLEAR     62  51  67 N5        30.05F
MILTON NAS     CLEAR     59  53  80 N5        30.05
CRESTVIEW      CLEAR     62  50  64 N6        30.06F
DUKE FIELD     FAIR      59  51  72 NW5       30.04F
VALPARAISO     CLEAR     63  49  61 N5        30.03F
MARY ESTHER    CLEAR     60  50  71 N8        30.03F
TRI COUNTY     FAIR      59  54  83 CALM      30.04F
PANAMA CITY    FAIR      62  54  74 NW6       30.02F
TYNDALL AFB    CLEAR     70  53  53 NE7       30.03F
APALACHICOLA   CLEAR     69  63  81 N6        30.01F

STATION/POSITION SKY/WX   TEMP    WIND        PRES    WAVE   SWELL
                          AIR SEA DIR/SP/G            HT/PER HT/PER
                          (F)     (DEG/KT/KT) (MB)    (FT/S) (FT/S)
30.1N   87.6W              76 85   20/ 17/ 21 1017.5F   3/ 4
29.2N   88.2W              80 85   20/ 17/ 23 1017.4F
28.8N   86.0W              82 85              1016.6F   2/ 4   2/ 4
PANAMA CITY BEAC           69 84  360/  7/  9 1017.6F
TOWER C                    77      10/ 18/ 20 1016.5S
28.5N   84.5W              83 85  300/  8/ 12 1016.0F   2/ 5   2/ 5

$$
FLZ011-016>038-118-127-128-134-139-239-300700-
NORTH FLORIDA

CITY           SKY/WX    TMP DP  RH WIND       PRES   REMARKS
MARIANNA       CLEAR     65  54  67 NW3       30.02F
TALLAHASSEE    CLEAR     72  55  55 NW7       30.01F
PERRY          CLEAR     70  64  80 CALM      30.00F
CROSS CITY     CLEAR     72  70  94 CALM      30.00F
LAKE CITY      FAIR      72  72 100 SW3       29.99F
GAINESVILLE    CLEAR     75  73  93 SW6       30.00F
WILLISTON      FOG       75  75 100 CALM      30.00F VSB 1
PALATKA        FAIR      73  73 100 S6        30.01S
MAYPORT NAS    CLEAR     77  74  90 SW7       29.98F
JACKSONVILLE   PTCLDY    73  73 100 S6        29.97F
JAX NAS        CLEAR     79  74  84 SW7       29.99F
FERNANDINA BEA FAIR      79  73  83 SW7       29.96F
ST AUGUSTINE   PTCLDY    76  72  87 SW8       30.00F
PALM COAST     FAIR     N/A N/A N/A MISG      30.01F

STATION/POSITION SKY/WX   TEMP    WIND        PRES    WAVE   SWELL
                          AIR SEA DIR/SP/G            HT/PER HT/PER
                          (F)     (DEG/KT/KT) (MB)    (FT/S) (FT/S)
SHELL POINT                73     330/  6/  9 1015.2
KEATON BEACH               78     320/  5/  9 1015.3F
CEDAR KEY                  82     280/  6/  7 1016.0F
FERNANDINA                 79 83  220/  3/  7 1015.1F
30.7N   81.3W                 82                N/A     3/11   2/11
MAYPORT                    78 83  240/ 10/ 13 1015.8F
31.4N   80.9W              81 82  220/ 16/ 17 1013.8F   3/ 5   2/10
ST AUGUSTINE               75 82  220/  7/  9 1016.5F

$$
FLZ040-043>046-052-053-057-058-063-144-300700-
INTERIOR CENTRAL FLORIDA

CITY           SKY/WX    TMP DP  RH WIND       PRES   REMARKS
OCALA          PTCLDY    73  70  88 S5        30.01F
THE VILLAGES     N/A     75  75 100 CALM      29.92F
LEESBURG       LGT RAIN  75  72  90 SW6       30.02F
SANFORD        CLEAR     75  70  84 SW7       30.01F
ORLANDO EXEC   CLEAR     74  71  91 SW6       30.02F
ORLANDO INTL   PTCLDY    74  71  91 S6        30.03F
KISSIMMEE      CLEAR     73  72  96 S6        30.04F
WINTER HAVEN   CLEAR     73  70  90 SW6       30.04F
LAKELAND       PTCLDY    72  72 100 S3        30.04F
BARTOW         FAIR      72 N/A N/A CALM      30.03F
OKEECHOBEE     CLEAR     73  72  94 S5        30.04F

$$
FLZ041-047-054-059-064-141-147-300700-
EAST CENTRAL FLORIDA

CITY           SKY/WX    TMP DP  RH WIND       PRES   REMARKS
DAYTONA BEACH  CLEAR     73  71  93 S5        30.01F
DELAND         CLEAR     75  72  88 SW5       30.01F
JFK SPACE CTR  CLEAR     77  72  84 SW7       30.01F
CAPE CANAVERAL CLEAR     77  74  92 SW6       30.01F
PATRICK AFB    CLEAR     78  74  90 SW12      30.02F
MELBOURNE      CLEAR     75  75 100 S7        30.03F
VERO BEACH     PTCLDY    76  74  93 S6        30.04F
FT PIERCE      PTCLDY    75  74  96 CALM      30.04F
STUART         PTCLDY    79  73  83 CALM      30.05F

STATION/POSITION SKY/WX   TEMP    WIND        PRES    WAVE   SWELL
                          AIR SEA DIR/SP/G            HT/PER HT/PER
                          (F)     (DEG/KT/KT) (MB)    (FT/S) (FT/S)
28.5N   80.2W              82 84  210/ 16/ 19 1017.0F
TRIDENT PIER               78 85  200/ 10/ 12 1017.4F
28.4N   80.5W                 85                N/A     2/11
27.5N   80.2W                 85                N/A     2/10   2/12

$$
FLZ050-056-061-142-242-148-248-149-249-151-251-155-255-
160-260-300700-
WEST CENTRAL FLORIDA

CITY           SKY/WX    TMP DP  RH WIND       PRES   REMARKS
CRYSTAL RIVER  FAIR      73  72  94 SE3       30.01F
INVERNESS      FAIR      72  72 100 CALM      30.02F
BROOKSVILLE    CLEAR     73  73 100 SE3       30.02F
CLEARWATER AIR FAIR      73  73 100 CALM      30.01F
ST PETE CLEARW PTCLDY    77  76  96 S7        30.01F
TAMPA INTL     MOCLDY    79  75  87 SE6       30.02F
TAMPA EXEC     PTCLDY    75  72  88 CALM      30.03F
PLANT CITY     PTCLDY    75  73  94 S3        30.05F
MACDILL AFB    PTCLDY    78  78 100 SE7       30.02F
PETER O KNIGHT PTCLDY    79  77  94 SE5       30.02F
ST PETERSBURG  PTCLDY    78  76  93 SW3       30.00F
SARASOTA       PTCLDY    77  73  87 SE7       30.01F
VENICE         MOCLDY    77  75  94 SE3       30.03F

STATION/POSITION SKY/WX   TEMP    WIND        PRES    WAVE   SWELL
                          AIR SEA DIR/SP/G            HT/PER HT/PER
                          (F)     (DEG/KT/KT) (MB)    (FT/S) (FT/S)
27.3N   84.2W                 86                N/A     2/ 5
CLEARWATER BEACH           81 86  170/  8/  9 1016.8F
MIDDLE TAMPA BAY                  180/  8/  9 1017.2F
VENICE                     82 87  210/  8/ 10 1016.5F

$$
FLZ066-069-070-075>078-162-262-165-265-300700-
SOUTHWEST FLORIDA AND KEYS

CITY           SKY/WX    TMP DP  RH WIND       PRES   REMARKS
PUNTA GORDA    MOCLDY    75  74  96 SE5       30.04F
FT MYERS       PTCLDY    78  74  87 E3        30.03F
SOUTHWEST INTL PTCLDY    77  74  90 NE3       30.04F
NAPLES         PTCLDY    78  76  93 E5        30.01F
MARATHON       PTCLDY    80  75  84 CALM      30.04F
KEY WEST NAS   PTCLDY    81  74  79 SE5       30.04F THUNDER
KEY WEST INTL  PTCLDY    84  76  76 SE6       30.04F

STATION/POSITION SKY/WX   TEMP    WIND        PRES    WAVE   SWELL
                          AIR SEA DIR/SP/G            HT/PER HT/PER
                          (F)     (DEG/KT/KT) (MB)    (FT/S) (FT/S)
NAPLES                        87              1017.0F
26.0N   85.6W              77 85  180/ 17/ 21 1017.2F   2/ 5
DRY TORTUGAS               83     140/  3/  4 1017.3F
SAND KEY                   83      80/  6/  6 1017.8F
LONG KEY                   84 86  130/  5/  7 1017.6F
MOLASSES REEF              83 85  100/  4/  6 1017.2F

$$
FLZ067-068-071>074-168-172>174-300700-
SOUTHEAST FLORIDA

CITY           SKY/WX    TMP DP  RH WIND       PRES   REMARKS
W PALM BEACH   PTCLDY    78  73  84 CALM      30.04F
FT LAUDER-EXEC CLOUDY    79  75  87 S3        30.03F
FT LAUDERDALE  CLOUDY    80  76  87 S5        30.02F
POMPANO BEACH  CLOUDY    79  75  87 SW3       30.04F
PEMBROKE PINES CLOUDY    80  75  84 SE5       30.04F
OPA LOCKA      CLOUDY    79  75  87 SE5       30.04F
MIAMI          CLOUDY    81  75  82 CALM      30.04F
WEST KENDALL   CLOUDY    79  74  84 S3        30.04F
HOMESTEAD      CLOUDY    78  76  93 SW2       30.03F

STATION/POSITION SKY/WX   TEMP    WIND        PRES    WAVE   SWELL
                          AIR SEA DIR/SP/G            HT/PER HT/PER
                          (F)     (DEG/KT/KT) (MB)    (FT/S) (FT/S)
PORT EVERGLADES            81     180/  3/  4 1017.4F
VIRGINIA KEY               83 89  170/  4/  5 1018.2F
LAKE WORTH                        220/  4/  6   N/A
FOWEY ROCKS                83 85  140/  8/  9 1017.6F
SETTLEMENT POINT           83     170/  5/  6 1018.1F

$$





USA.gov is the U.S. government's official web portal to all federal, state and local government web resources and services.